Weather History for Longview, TX

Change the Weather History Date:

Thursday, June 7, 2012

  Actual Average Record
Temperature  
Mean Temperature 76 °F 78 °F  
Max Temperature 82 °F 88 °F 102 °F (1911)
Min Temperature 70 °F 68 °F 54 °F (1970)
Degree Days  
Heating Degree Days 0 0  
Month to date heating degree days 0 0  
Since 1 June heating degree days 0 0  
Since 1 July heating degree days 1665 2258  
Cooling Degree Days 11 13  
Month to date cooling degree days 104 87  
Year to date cooling degree days 755 466  
Since 1 June cooling degree days 104 87  
Growing Degree Days 26 (Base 50)    
Moisture  
Dew Point 65 °F    
Average Humidity 76    
Maximum Humidity 97    
Minimum Humidity 54    
Precipitation  
Precipitation 0.01 in 0.17 in 2.00 in (1984)
Month to date precipitation 0.75 1.11  
Year to date precipitation 18.76 20.84  
Snow  
Snow 0.00 in - - ()
Month to date snowfall 0.0  
Since 1 June snowfall 0.0  
Since 1 July snowfall 0.0  
Snow Depth 0.00 in    
Sea Level Pressure  
Sea Level Pressure 29.93 in    
Wind  
Wind Speed 4 mph (ENE)    
Max Wind Speed 14 mph    
Max Gust Speed 17 mph    
Visibility 9 miles    
Events Rain    
T = Trace of Precipitation, MM = Missing Value Source: NWS Daily Summary

Daily Weather History Graph

Daily Weather History Graph

Search for Another Location

Airport:

Trip Planner

Search our weather history database for the weather conditions in past years. The results will help you decide how hot, cold, wet, or windy it might be!

Date:

Astronomy

Jun. 07, 2012 Rise Set
Actual Time 6:11 AM CDT 8:24 PM CDT
Civil Twilight 5:43 AM CDT 8:52 PM CDT
Nautical Twilight 5:08 AM CDT 9:27 PM CDT
Astronomical Twilight 4:31 AM CDT 10:04 PM CDT
Moon 11:25 PM CDT (6/7) 9:36 AM CDT (6/7)
Length of Visible Light 15h 09m
Length of Day
14h 12m
Waning Gibbous, 86% of the Moon is Illuminated
Jun 7
Waning Gibbous
Jun 11
Last Quarter
Jun 19
New
Jun 26
First Quarter
Jul 3
Full

Hourly Weather History & Observations

Time (CDT) Temp. Heat Index Dew Point Humidity Pressure Visibility Wind Dir Wind Speed Gust Speed Precip Events Conditions
12:53 AM 70.0 °F - 69.1 °F 97% 29.90 in 10.0 mi SE 10.4 mph - 0.00 in   Partly Cloudy
1:53 AM 71.1 °F - 68.0 °F 90% 29.90 in 10.0 mi Calm Calm - 0.00 in Rain Light Rain
2:53 AM 71.1 °F - 68.0 °F 90% 29.88 in 10.0 mi ESE 3.5 mph - 0.01 in   Scattered Clouds
3:53 AM 70.0 °F - 68.0 °F 93% 29.88 in 9.0 mi Calm Calm - N/A   Scattered Clouds
4:53 AM 70.0 °F - 68.0 °F 93% 29.90 in 7.0 mi Calm Calm - N/A   Partly Cloudy
5:53 AM 70.0 °F - 68.0 °F 93% 29.91 in 6.0 mi Calm Calm - N/A   Mostly Cloudy
6:53 AM 71.1 °F - 69.1 °F 93% 29.91 in 3.0 mi Calm Calm - 0.00 in   Mostly Cloudy
7:53 AM 70.0 °F - 66.9 °F 90% 29.93 in 7.0 mi ENE 5.8 mph - N/A   Mostly Cloudy
8:53 AM 70.0 °F - 64.9 °F 84% 29.96 in 8.0 mi ENE 5.8 mph - N/A   Clear
9:53 AM 72.0 °F - 64.0 °F 76% 29.97 in 7.0 mi East 6.9 mph - N/A   Partly Cloudy
10:53 AM 75.0 °F - 63.0 °F 66% 29.98 in 10.0 mi East 8.1 mph - N/A   Partly Cloudy
11:53 AM 78.1 °F - 63.0 °F 60% 29.97 in 10.0 mi East 10.4 mph - N/A   Overcast
12:53 PM 81.0 °F 82.2 °F 63.0 °F 54% 29.97 in 10.0 mi East 9.2 mph - N/A   Scattered Clouds
1:53 PM 80.1 °F 81.2 °F 62.1 °F 54% 29.96 in 10.0 mi Calm Calm - N/A   Overcast
2:53 PM 79.0 °F - 64.0 °F 60% 29.96 in 10.0 mi North 3.5 mph - N/A   Overcast
3:53 PM 81.0 °F 82.5 °F 64.0 °F 56% 29.93 in 10.0 mi NE 8.1 mph - N/A   Mostly Cloudy
4:53 PM 80.1 °F 81.7 °F 64.0 °F 58% 29.92 in 10.0 mi NE 5.8 mph - N/A   Mostly Cloudy
5:53 PM 80.1 °F 81.5 °F 63.0 °F 56% 29.91 in 10.0 mi NE 5.8 mph - N/A   Clear
6:53 PM 77.0 °F - 62.1 °F 60% 29.91 in 10.0 mi NE 6.9 mph - N/A   Overcast
7:53 PM 75.9 °F - 62.1 °F 62% 29.92 in 10.0 mi NE 4.6 mph - N/A   Overcast
8:53 PM 75.0 °F - 62.1 °F 64% 29.93 in 10.0 mi NE 3.5 mph - N/A   Overcast
9:53 PM 73.9 °F - 63.0 °F 68% 29.94 in 10.0 mi NNE 3.5 mph - N/A   Overcast
10:53 PM 73.9 °F - 63.0 °F 68% 29.94 in 10.0 mi ENE 3.5 mph - N/A   Overcast
11:53 PM 73.9 °F - 62.1 °F 66% 29.95 in 10.0 mi NNE 4.6 mph - N/A   Overcast